Indianapolis, IN

4:43 PM EDT on April 20, 2018 (GMT -0400)
Indianapolis International

Weather History for KIND - March, 2013

Change the Weather History Date:

Tuesday, March 26, 2013

  Actual Average Record
Temperature  
Mean Temperature 34 °F 46 °F  
Max Temperature 39 °F 56 °F 80 °F (1907)
Min Temperature 29 °F 36 °F 8 °F (1955)
Degree Days  
Heating Degree Days 31 19  
Month to date heating degree days 794 616  
Since 1 July heating degree days 4805 4759  
Cooling Degree Days 0 0  
Month to date cooling degree days 0 0  
Year to date cooling degree days 0 0  
Moisture  
Dew Point 25 °F    
Average Humidity 70    
Maximum Humidity 85    
Minimum Humidity 54    
Precipitation  
Precipitation T in 0.12 in 1.98 in (1948)
Month to date precipitation 1.90 2.92  
Year to date precipitation 9.68 7.90  
Snow  
Snow 0.10 in 0.00 in 2.10 in (1930)
Month to date snowfall 14.5 2.4  
Since 1 July snowfall 34.5 25.5  
Snow Depth 5.00 in    
Sea Level Pressure  
Sea Level Pressure 30.15 in    
Wind  
Wind Speed 11 mph (NW)    
Max Wind Speed 21 mph    
Max Gust Speed 28 mph    
Visibility 10 miles    
Events Snow    
T = Trace of Precipitation, MM = Missing Value Source: NWS Daily Summary

Daily Weather History Graph

Daily Weather History Graph

Search for Another Location

Airport or City:

Astronomy

Mar. 26, 2013 Rise Set
Actual Time 7:38 AM EDT 8:03 PM EDT
Civil Twilight 7:11 AM EDT 8:30 PM EDT
Nautical Twilight 6:39 AM EDT 9:02 PM EDT
Astronomical Twilight 6:07 AM EDT 9:34 PM EDT
Moon 7:39 PM EDT (3/26) 6:54 AM EDT (3/26)
Length of Visible Light 13h 19m
Length of Day
12h 25m
Waxing Gibbous, 99% of the Moon is Illuminated
Mar 26
Waxing Gibbous
Mar 27
Full
Apr 3
Last Quarter
Apr 10
New
Apr 18
First Quarter

Hourly Weather History & Observations

Time (EDT) Temp. Windchill Dew Point Humidity Pressure Visibility Wind Dir Wind Speed Gust Speed Precip Events Conditions
12:54 AM 30.9 °F 20.7 °F 27.0 °F 85% 30.03 in 8.0 mi NW 13.8 mph - 0.00 in Snow Light Snow
1:54 AM 30.0 °F 19.5 °F 27.0 °F 88% 30.04 in 6.0 mi NW 13.8 mph - 0.00 in Snow Light Snow
2:22 AM 30.2 °F 20.8 °F 26.6 °F 86% 30.02 in 9.0 mi NW 11.5 mph - 0.00 in Snow Light Snow
2:54 AM 30.0 °F 20.5 °F 26.1 °F 85% 30.05 in 9.0 mi NW 11.5 mph - 0.00 in Snow Light Snow
3:54 AM 30.0 °F 20.5 °F 26.1 °F 85% 30.05 in 9.0 mi NW 11.5 mph - 0.00 in Snow Light Snow
4:54 AM 30.0 °F 20.5 °F 25.0 °F 82% 30.06 in 9.0 mi NW 11.5 mph - 0.00 in Snow Light Snow
5:39 AM 30.2 °F 22.6 °F 24.8 °F 80% 30.04 in 9.0 mi NW 8.1 mph - 0.00 in Snow Light Snow
5:54 AM 30.0 °F 21.7 °F 25.0 °F 82% 30.07 in 9.0 mi NW 9.2 mph - 0.00 in Snow Light Snow
6:42 AM 30.2 °F 21.9 °F 24.8 °F 80% 30.06 in 9.0 mi NW 9.2 mph - 0.00 in Snow Light Snow
6:54 AM 28.9 °F 21.1 °F 24.1 °F 82% 30.09 in 10.0 mi WNW 8.1 mph - 0.00 in   Overcast
7:18 AM 28.4 °F 20.4 °F 24.8 °F 86% 30.07 in 10.0 mi NW 8.1 mph - N/A   Overcast
7:54 AM 28.9 °F 21.1 °F 24.1 °F 82% 30.11 in 10.0 mi WNW 8.1 mph - N/A   Overcast
8:54 AM 30.0 °F 21.1 °F 25.0 °F 82% 30.14 in 10.0 mi WNW 10.4 mph - N/A   Overcast
9:54 AM 32.0 °F 23.0 °F 26.1 °F 79% 30.15 in 10.0 mi NW 11.5 mph - N/A   Overcast
10:54 AM 34.0 °F 25.0 °F 27.0 °F 75% 30.17 in 10.0 mi NNW 12.7 mph - N/A   Mostly Cloudy
11:54 AM 35.1 °F 26.9 °F 26.1 °F 70% 30.18 in 10.0 mi NW 11.5 mph - N/A   Mostly Cloudy
12:54 PM 37.0 °F 28.5 °F 24.1 °F 59% 30.19 in 10.0 mi NNW 13.8 mph - N/A   Mostly Cloudy
1:54 PM 37.0 °F 28.9 °F 25.0 °F 62% 30.19 in 10.0 mi WNW 12.7 mph - N/A   Mostly Cloudy
2:54 PM 37.0 °F 28.9 °F 24.1 °F 59% 30.19 in 10.0 mi NW 12.7 mph - N/A   Mostly Cloudy
3:54 PM 37.9 °F 29.2 °F 25.0 °F 60% 30.19 in 10.0 mi WNW 15.0 mph - N/A   Mostly Cloudy
4:54 PM 39.0 °F 31.0 °F 25.0 °F 57% 30.20 in 10.0 mi NW 13.8 mph - N/A   Mostly Cloudy
5:54 PM 37.0 °F 28.1 °F 23.0 °F 57% 30.21 in 10.0 mi West 15.0 mph 24.2 mph N/A   Mostly Cloudy
6:54 PM 36.0 °F 28.5 °F 24.1 °F 62% 30.23 in 10.0 mi WNW 10.4 mph - N/A   Overcast
7:54 PM 35.1 °F 26.9 °F 25.0 °F 67% 30.25 in 10.0 mi WNW 11.5 mph - N/A   Overcast
8:54 PM 34.0 °F 25.5 °F 24.1 °F 67% 30.25 in 10.0 mi WNW 11.5 mph - N/A   Mostly Cloudy
9:54 PM 32.0 °F 24.2 °F 24.1 °F 73% 30.26 in 10.0 mi West 9.2 mph - N/A   Scattered Clouds
10:54 PM 32.0 °F 24.2 °F 26.1 °F 79% 30.27 in 10.0 mi West 9.2 mph - N/A   Mostly Cloudy
11:54 PM 30.9 °F 24.3 °F 25.0 °F 79% 30.27 in 10.0 mi West 6.9 mph - N/A   Mostly Cloudy